Location: Unspecified
(50.1700°N, 6.8600°E)
Time: 19:34:06
(UTC+00:00)

CZ-4B R/B - Pass Details

Date: 24 January 2019
Orbit: 808 x 882 km, 99.1° (Epoch: 20 February)

Event Time Altitude Azimuth Distance (km) Brightness Sun altitude
Rises 04:38:05 0° 16° (NNE) 3,398 6.5 -25.2°
Reaches altitude 10° 04:40:29 10° 18° (NNE) 2,449 5.8 -24.9°
Maximum altitude 04:45:54 75° 105° (ESE) 854 3.3 -24.0°
Drops below altitude 10° 04:51:11 10° 190° (S) 2,395 5.5 -23.1°
Sets 04:53:30 0° 192° (SSW) 3,318 6.2 -22.8°
